Location: Moscow
(55.7500°N, 37.5830°E)
Time: 21:48:03
(UTC+03:00)

Vanguard 2 - Pass Details

Date: 02 December 2021
Orbit: 553 x 2936 km, 32.9° (Epoch: 15 January)

Event Time Altitude Azimuth Distance (km) Brightness Sun altitude
Rises 18:39:55 0° 241° (WSW) 4,180 12.5 -20.9°
Reaches altitude 10° 18:45:28 10° 210° (SSW) 3,787 11.5 -21.7°
Maximum altitude 18:48:10 11° 194° (SSW) 3,944 11.4 -22.1°
Drops below altitude 10° 18:51:11 10° 179° (S) 4,335 11.4 -22.5°
Sets 18:59:25 0° 152° (SSE) 6,004 11.9 -23.7°
